Вернуться в каталог

STARLINK-30280

АктивенСвязьVLEO
NORAD 57643·PAYLOAD·🇺🇸 United States

Запущен Aug 17, 2023 с Cape Canaveral Space Force Station

Loading…

Ближайшие Пролёты (ближайшие 24 часа)

TLE

СвежийSource: CelesTrak SupGP

Эпоха: Sep 15, 2026, 01:50 UTC

1 57643C 23122M   26258.07687500  .00041349  00000+0  14974-2 0  2586
2 57643  43.0009 102.7711 0001438 270.8639  77.7534 15.27564673    13

Отслеживайте STARLINK-30280 в реальном времени с AllMySat

Download on the App Store